Starlink 11149

operational
NORAD ID: 60041 Int'l Des: 2024-112 Owner: SPXS Country: US Constellation: starlink
LEOCIRCULAR

About Starlink 11149

Description loading...

Live Position

Loading 3D Globe...

Upcoming Passes

Altitude History

Altitude vs Time

uPlot chart will show altitude changes over time

Two-Line Element Set

1 60041U 24112D 25353.17856216 .00000050 00000-0 52704-5 0 9993
2 60041 53.1593 303.3186 0001106 92.0272 268.0872 15.69702138 88330
Epoch: Dec 19, 2025 • Age: 27 hours

Current Status

Altitude 366.3 km
Velocity 7.69 km/s
Sub-Earth Point -22.03°S, 60.94°W
Launch Date Jun 8, 2024
Age 1.5 years
Type internet

Technical Details

Classification Payload
Mass 960.00 kg
Dry Mass 910.00 kg
Total Mass 960.00 kg
Length 0.30 m
Diameter 4.10 m
Span 29.00 m
Shape Box + pan
Manufacturer SPXS
Bus Type Starlink V2MD
Phase Status In Orbit
Owner/State SPXS/US

Large Constellations

Loading constellations...